Location: Unspecified
(0.0000°N, 0.0000°E)
Time: 05:17:39
(UTC+00:00)

N. Korean satellite - Pass Details

Date: 21 January 2018
Orbit: 458 x 514 km, 97.2° (Epoch: 24 April)

Event Time Altitude Azimuth Distance (km) Brightness Sun altitude
Rises 18:37:54 0° 181° (S) 2,614 10.6 -6.2°
Reaches altitude 10° 18:40:05 10° 188° (S) 1,720 9.8 -6.7°
Maximum altitude 18:43:34 40° 259° (WSW) 749 8.3 -7.6°
Drops below altitude 10° 18:47:00 10° 329° (NNW) 1,684 9.4 -8.4°
Sets 18:49:07 0° 337° (NNW) 2,553 10.3 -8.9°
